EW8359 Weather Reports


time (UTC)temp
C
wind
direction
speed
KPH
gust
KPH
rain 1hr
cm
rain 24hr
cm
rain mn
cm
humidity
%
barometer
mb
20260903221536 17 86 0.0 1.6 0.00 0.48 0.48 89 1010.2
20260903220035 17 86 0.0 3.2 0.00 0.48 0.48 89 1010.2
20260903214538 17 86 0.0 1.6 0.00 0.48 0.48 89 1010.3
20260903213047 17 86 0.0 1.6 0.00 0.48 0.48 89 1010.4
20260903211534 17 86 0.0 3.2 0.00 0.48 0.48 89 1010.3
20260903210034 18 86 0.0 1.6 0.00 0.48 0.48 89 1010.3
20260903204533 18 86 0.0 1.6 0.00 0.48 0.48 89 1010.4
20260903203031 18 86 0.0 3.2 0.00 0.48 0.48 89 1010.5
20260903201530 18 86 0.0 3.2 0.00 0.48 0.48 89 1010.5
20260903200030 18 88 0.0 3.2 0.00 0.48 0.48 89 1010.5
20260903194529 18 65 0.0 1.6 0.00 0.48 0.48 89 1010.6
20260903193027 18 65 0.0 3.2 0.00 0.48 0.48 89 1010.7
20260903191536 18 65 0.0 1.6 0.00 0.48 0.48 89 1010.8
20260903190022 18 65 1.6 4.8 0.00 0.48 0.48 89 1011.0
20260903184520 18 202 0.0 1.6 0.00 0.48 0.48 89 1011.2
20260903183027 18 202 0.0 1.6 0.00 0.48 0.48 89 1011.3
20260903181518 17 202 0.0 1.6 0.00 0.48 0.48 89 1011.5
20260903180028 17 188 0.0 3.2 0.00 0.48 0.48 89 1011.5
20260903174523 17 188 0.0 3.2 0.00 0.48 0.48 89 1011.5
20260903173018 18 188 0.0 4.8 0.00 0.48 0.48 89 1011.4
20260903171514 18 324 0.0 1.6 0.00 0.48 0.48 89 1011.4
20260903170015 17 324 1.6 3.2 0.00 0.48 0.48 89 1011.4
20260903164513 17 324 1.6 4.8 0.00 0.48 0.48 90 1011.7
20260903163009 17 234 0.0 3.2 0.00 0.48 0.48 89 1011.8
20260903161509 17 234 0.0 3.2 0.00 0.48 0.48 90 1011.9
20260903160005 17 234 0.0 3.2 0.00 0.48 0.48 90 1012.2
20260903154505 17 232 0.0 3.2 0.00 0.48 0.48 90 1012.3
20260903153002 17 146 0.0 4.8 0.00 0.48 0.48 90 1012.5
20260903151600 17 165 0.0 4.8 0.00 0.48 0.48 90 1012.7
20260903144556 17 181 0.0 3.2 0.03 0.48 0.48 90 1013.0
20260903143056 16 181 0.0 3.2 0.03 0.48 0.48 90 1013.0
20260903141552 16 181 1.6 3.2 0.03 0.48 0.48 90 1013.2
20260903140055 16 181 0.0 3.2 0.00 0.46 0.46 90 1013.2
20260903134611 16 182 0.0 1.6 0.00 0.46 0.46 90 1013.3
20260903133051 16 182 0.0 3.2 0.00 0.46 0.46 90 1013.3
20260903131549 16 182 0.0 3.2 0.03 0.46 0.46 90 1013.3
20260903130049 15 182 0.0 1.6 0.05 0.46 0.46 91 1013.5
20260903124542 15 182 0.0 1.6 0.05 0.46 0.46 90 1013.7
20260903123041 15 182 0.0 3.2 0.08 0.46 0.46 90 1013.9
20260903121550 15 182 0.0 1.6 0.08 0.43 0.43 90 1013.9
20260903120051 15 182 0.0 1.6 0.08 0.41 0.41 90 1014.2
20260903114557 15 182 0.0 3.2 0.10 0.41 0.41 90 1014.3
20260903113039 15 182 0.0 1.6 0.08 0.38 0.38 90 1014.4
20260903111538 15 182 0.0 0.0 0.05 0.36 0.36 90 1013.9
20260903110037 15 182 0.0 0.0 0.03 0.33 0.33 90 1014.2
20260903104537 15 182 0.0 1.6 0.00 0.30 0.30 90 1014.0
20260903103035 15 182 0.0 0.0 0.00 0.30 0.30 90 1013.9
20260903101533 15 182 0.0 0.0 0.03 0.30 0.30 90 1014.1
20260903100031 15 182 0.0 1.6 0.03 0.30 0.30 90 1014.2
20260903094528 15 182 0.0 4.8 0.03 0.30 0.30 90 1014.5
20260903093029 16 182 1.6 6.4 0.20 0.30 0.30 90 1014.5
20260903091526 16 164 0.0 1.6 0.25 0.28 0.28 90 1014.7
20260903090025 16 164 0.0 1.6 0.25 0.28 0.28 90 1014.7
20260903084524 16 164 1.6 3.2 0.25 0.28 0.28 90 1014.8
20260903083023 16 164 0.0 1.6 0.08 0.10 0.10 90 1015.0
20260903081522 16 164 0.0 0.0 0.00 0.03 0.03 90 1015.0
20260903080021 16 164 0.0 1.6 0.00 0.03 0.03 90 1014.7
20260903074519 16 164 0.0 0.0 0.03 0.03 0.03 90 1014.6
20260903073023 16 164 0.0 1.6 0.03 0.03 0.03 89 1014.8
20260903071518 16 164 0.0 1.6 0.03 0.03 0.03 89 1014.9
20260903070017 16 164 0.0 1.6 0.03 0.03 0.03 89 1015.2
20260903064512 16 164 0.0 1.6 0.00 0.00 0.00 89 1015.2
20260903063008 16 164 0.0 1.6 0.00 0.00 0.00 89 1016.0
20260903061506 16 164 0.0 1.6 0.00 0.00 0.00 89 1016.3
20260903060005 16 164 0.0 3.2 0.00 0.00 0.00 89 1016.7
20260903054510 16 164 0.0 1.6 0.00 0.00 0.00 89 1016.5
20260903053101 16 164 0.0 1.6 0.00 0.00 0.00 89 1016.7
20260903051559 15 164 0.0 0.0 0.00 0.00 0.00 89 1016.8
20260903050057 15 164 0.0 1.6 0.00 0.00 0.00 89 1016.9
20260903044559 15 164 0.0 1.6 0.00 0.00 0.00 89 1016.9
20260903043052 15 164 0.0 1.6 0.00 0.00 0.00 89 1017.1
20260903041607 15 164 0.0 1.6 0.00 0.00 0.00 89 1017.1
20260903040051 15 164 0.0 1.6 0.00 0.00 0.00 89 1017.3
20260903034547 15 164 0.0 1.6 0.00 0.00 0.00 89 1017.8
20260903033046 15 164 0.0 1.6 0.00 0.00 0.00 89 1018.1
20260903031544 15 164 0.0 1.6 0.00 0.00 0.00 89 1017.9
20260903030044 15 164 0.0 1.6 0.00 0.00 0.00 88 1018.1
20260903024545 15 164 0.0 3.2 0.00 0.00 0.00 88 1018.0
20260903023044 15 178 1.6 4.8 0.00 0.00 0.00 87 1018.0
20260903021543 15 178 0.0 4.8 0.00 0.00 0.00 87 1018.2
20260903020049 15 181 0.0 3.2 0.00 0.00 0.00 87 1018.4
20260903014602 15 177 0.0 3.2 0.00 0.00 0.00 87 1018.4
20260903013051 15 177 0.0 4.8 0.00 0.00 0.00 87 1018.4
20260903011605 15 163 0.0 1.6 0.00 0.00 0.00 87 1018.5
20260903010057 16 144 1.6 6.4 0.00 0.00 0.00 87 1018.4
20260903004538 16 164 0.0 4.8 0.00 0.00 0.00 87 1017.9
20260903003036 16 162 1.6 3.2 0.00 0.00 0.00 87 1017.9
20260903001546 16 162 0.0 8.0 0.00 0.00 0.00 87 1017.9
20260903000036 16 159 0.0 3.2 0.00 0.00 0.00 86 1018.4
20260902234541 16 155 0.0 3.2 0.00 0.00 0.00 86 1018.5
20260902233037 16 155 0.0 1.6 0.00 0.00 0.00 85 1018.7
20260902231544 16 154 0.0 1.6 0.00 0.00 0.00 84 1018.8
20260902230040 17 155 0.0 3.2 0.00 0.00 0.00 82 1019.1
20260902224537 17 155 0.0 4.8 0.00 0.00 0.00 80 1019.0
20260902223040 17 169 0.0 1.6 0.00 0.00 0.00 78 1019.3